Location: Mentone
(34.5413°N, 85.5351°W)
Time: 02:58:18
(UTC-05:00)

Centaur AC-72 - Visible Passes

Search period start: 23 October 2014 00:00
Search period end: 02 November 2014 00:00
Orbit: 1121 x 35235 km, 19.1° (Epoch: 19 October)

Date Brightness Start Highest point End Pass type
(mag) Time Alt. Az. Time Alt. Az. Time Alt. Az.
23 Oct 9.9 00:00:00 24° W 00:08:11 24° W 03:09:54 10° W visible
23 Oct 7.1 19:18:16 10° WSW 21:14:58 60° SW 04:53:20 10° SSW visible
24 Oct 7.5 16:21:04 10° SW 21:15:11 66° SSE 02:08:57 10° SSE visible
25 Oct 7.2 13:31:17 10° SSW 20:46:16 43° ESE 23:06:25 10° SE visible
26 Oct 9.3 22:21:36 10° W 23:51:26 25° W 02:59:24 10° W visible
27 Oct 7.2 19:02:05 10° WSW 20:57:26 61° SW 04:37:25 10° SSW visible
28 Oct 7.5 16:05:10 10° SW 21:03:41 65° SSE 01:52:47 10° SSE visible
29 Oct 7.2 13:15:27 10° SSW 20:30:20 42° ESE 22:49:34 10° SE visible
30 Oct 9.4 22:03:59 10° W 23:34:39 26° W 02:48:33 10° W visible
31 Oct 7.2 18:45:55 10° W 20:39:47 62° SW 04:21:30 10° SSW visible
01 Nov 8.4 15:49:16 10° SW 20:51:58 64° SSE 00:00:00 52° SSW visible
